Simultaneous Nadir Overpasses (SNOs) Predictions

Prediction of SNOs between GOES-14 and AQUA Satellite Orbit:

Table of predicted SNOs for the next 14.0 days since TLE Epoch: 8/31/2018
Index Date Time (GOES-14) GOES-14 Lat,Lon AQUA Lat,Lon Distance(km) Time Diff (sec)
1 09/02/2018 08:27:26 0.38,-104.28 0.19,-103.24 117.23 80
2 09/02/2018 20:48:50 -0.38,-104.39 -1.26,-108.44 460.33 80
3 09/04/2018 08:15:13 0.37,-104.25 -0.47,-100.29 450.58 80
4 09/04/2018 20:36:37 -0.37,-104.37 -0.61,-105.48 126.65 80
5 09/06/2018 20:27:04 -0.37,-104.34 0.05,-102.52 206.80 80
6 09/07/2018 08:48:18 0.36,-104.22 1.12,-107.67 392.07 80
7 09/09/2018 08:36:05 0.36,-104.19 0.46,-104.71 58.53 80
8 09/11/2018 08:21:11 0.36,-104.16 -0.14,-101.74 275.35 80
9 09/11/2018 20:42:34 -0.35,-104.25 -0.94,-106.93 305.25 80
10 09/13/2018 20:33:02 -0.35,-104.23 -0.28,-103.98 29.41 80




NCC Satellite Simultaneous Nadir Overpasses (SNOs) Prediction Service
